This is the latest recevied weather packets stored in our database for station/object DO1MIT-10. If no packets are shown the sender has not sent any weather packets the latest 10 day(s).
| Time | Temp. | Humidity | Pressure | Rain* | Wind** | Luminosity | Snow |
|---|---|---|---|---|---|---|---|
| 1787618275 | 12.22° C | 74% | 1020.6 hPa | - | - | - | - |
| 1787617375 | 11.67° C | 73% | 1020.6 hPa | - | - | - | - |
| 1787616475 | 11.67° C | 72% | 1020.7 hPa | - | - | - | - |
| 1787615575 | 12.22° C | 73% | 1020.9 hPa | - | - | - | - |
| 1787614675 | 12.22° C | 72% | 1021 hPa | - | - | - | - |
| 1787613775 | 12.22° C | 72% | 1021.3 hPa | - | - | - | - |
| 1787612875 | 12.22° C | 72% | 1021.5 hPa | - | - | - | - |
| 1787611975 | 12.22° C | 71% | 1021.8 hPa | - | - | - | - |
| 1787611074 | 12.78° C | 71% | 1022.2 hPa | - | - | - | - |
| 1787610174 | 12.78° C | 71% | 1022.3 hPa | - | - | - | - |
| 1787609274 | 12.78° C | 70% | 1022.3 hPa | - | - | - | - |
| 1787608374 | 12.22° C | 70% | 1022.5 hPa | - | - | - | - |
| 1787607474 | 12.22° C | 70% | 1022.6 hPa | - | - | - | - |
| 1787606574 | 12.78° C | 70% | 1022.4 hPa | - | - | - | - |
| 1787605674 | 12.78° C | 70% | 1022.5 hPa | - | - | - | - |
| 1787604774 | 12.78° C | 69% | 1022.6 hPa | - | - | - | - |
| 1787603874 | 12.78° C | 69% | 1022.4 hPa | - | - | - | - |
| 1787602974 | 12.78° C | 68% | 1022.5 hPa | - | - | - | - |
| 1787602073 | 12.78° C | 68% | 1022.6 hPa | - | - | - | - |
| 1787601173 | 13.33° C | 68% | 1022.7 hPa | - | - | - | - |
| 1787600273 | 13.33° C | 67% | 1022.6 hPa | - | - | - | - |
| 1787599373 | 13.33° C | 66% | 1022.8 hPa | - | - | - | - |
| 1787598473 | 13.33° C | 66% | 1022.8 hPa | - | - | - | - |
| 1787597573 | 13.33° C | 64% | 1022.7 hPa | - | - | - | - |
| 1787596673 | 13.89° C | 64% | 1022.8 hPa | - | - | - | - |
* Rain since midnight (hover to see other rain measurements)
** Current wind speed in m/s (hover to see current wind gust speed)